Location: Mason Landing
(38.2373°N, 75.2574°W)
Time: 00:25:41
(UTC+00:00)

Daily predictions for brighter satellites

Satellite Brightness Start Highest point End
(mag) Time Altitude Azimuth Time Altitude Azimuth Time Altitude Azimuth
Meteor 1-10 Rocket 4.4 00:37:15 10° SSE 00:42:34 52° E 00:48:00 10° NNE
NOSS 3-2 (C) 4.3 00:35:42 10° NNW 00:43:31 77° ENE 00:52:18 10° SE
Cosmos 1633 Rocket 3.6 00:40:17 10° N 00:44:26 41° ENE 00:48:31 10° SSE
Meteor 1-14 Rocket 4.4 00:42:27 10° N 00:48:21 88° E 00:54:06 10° S
CENTAUR R/B 3.6 00:40:14 10° NW 00:48:42 72° WSW 00:57:43 10° SSE
Okean O Rocket 4.2 00:46:45 10° SW 00:49:53 19° W 00:53:02 10° NW
Cosmos 1666 4.1 00:47:04 10° NNW 00:50:39 40° W 00:54:11 10° SSW
Sich 1 3.6 00:47:02 10° NNW 00:51:20 61° W 00:55:34 10° S
Meteor 1-27 Rocket 4.3 00:46:33 10° SSE 00:51:49 38° E 00:57:11 10° NNE
Cosmos 1743 4.4 00:49:57 10° NNE 00:52:33 17° ENE 00:55:07 10° ESE
Cosmos 2344 3.7 00:46:04 10° S 00:53:36 50° ESE 01:00:40 10° NE
Cosmos 1470 Rocket 4.4 00:52:06 10° NNE 00:55:58 31° ENE 00:59:49 10° SE
Tsikada Rocket 4.2 00:49:56 10° N 00:56:14 77° W 01:02:25 10° S
Cosmos 44 3.8 00:52:54 10° NW 00:57:03 47° WSW 01:01:14 10° S
Cosmos 2208 Rocket 4.1 00:52:20 10° NNW 00:57:47 73° ENE 01:03:07 10° SSE
OAO 3 Rocket 3.4 00:54:00 10° W 00:58:49 59° S 01:03:41 10° ESE
SL-12 R/B (Aux Motor) 4.3 00:55:20 10° SW 00:59:14 45° SSE 01:01:13 10° ENE
Cosmos 2219 3.5 00:54:18 10° NNW 00:59:47 50° ENE 01:05:03 11° SE
USA 238 DEB 4.0 00:56:11 10° NW 01:03:38 84° WSW 01:11:23 10° SSE
USA 238 4.0 00:56:18 10° NW 01:03:45 85° WSW 01:11:30 10° SSE
Ariane Rocket 4.0 01:00:37 11° SE 01:04:55 31° ENE 01:09:22 10° N
Resurs 01 Rocket 2.3 01:01:51 11° SE 01:05:47 37° ENE 01:09:51 10° N
Cosmos 1515 Rocket 4.0 01:02:13 10° SSE 01:06:19 43° E 01:10:29 10° NNE
Cosmos 2263 Rocket 4.1 01:05:09 10° NNE 01:08:31 16° NE 01:11:51 10° E
Meteor 1-11 Rocket 4.0 01:04:09 10° N 01:10:01 56° ENE 01:15:49 10° SSE
IGS 5A 3.6 01:08:57 10° S 01:13:05 76° W 01:17:15 10° NNW
PSLV R/B 3.8 01:10:08 10° NNE 01:14:10 71° E 01:18:11 10° S
Landsat 7 3.8 01:09:53 10° SSE 01:14:34 77° ENE 01:19:18 10° N
Cosmos 1544 4.4 01:12:36 10° NNW 01:15:53 37° W 01:19:09 10° SSW
ISS -0.9 01:15:05 10° N 01:16:06 11° NNE 01:17:07 10° NNE
Okean-O 4.1 01:13:33 10° SSW 01:17:38 37° W 01:21:45 10° NNW
Aureole 1 Rocket 2.2 01:17:52 10° SSW 01:21:16 87° WNW 01:24:16 10° NNE
IRAS Rocket 4.3 01:15:49 10° NNE 01:21:25 63° ESE 01:26:59 10° S
Cosmos 2227 Rocket 2.2 01:21:50 10° NNW 01:27:32 84° WSW 01:32:27 14° SSE
Okean 1 4.2 01:26:46 20° SE 01:28:43 30° E 01:32:14 10° NNE
Cosmos 1536 2.8 01:26:23 10° N 01:30:23 63° E 01:33:11 19° SSE
Cosmos 1980 Rocket 2.1 01:26:27 10° SSW 01:32:01 71° ESE 01:37:40 10° NNE
RESURS DK-1 2.8 01:29:12 10° S 01:32:58 39° ESE 01:36:49 10° NE
ASTRO E2 4.0 01:32:41 10° WSW 01:35:49 23° SSW 01:36:58 20° SSE
SL-4 R/B 2.3 01:31:22 10° NW 01:35:56 70° NE 01:38:30 23° ESE
ARGOS Delta rocket 4.1 01:32:16 10° N 01:37:47 90° N 01:43:08 10° SSW
Cosmos 1184 Rocket 2.4 01:35:22 14° S 01:37:51 89° SE 01:40:52 10° N
Cosmos 1354 Rocket 4.0 01:33:10 10° S 01:38:22 66° ESE 01:43:37 10° NNE
H-2A R/B 3.2 01:35:59 10° N 01:39:51 42° WNW 01:43:44 10° SW
SPOT 3 Rocket 4.1 01:38:06 21° SE 01:41:04 43° ENE 01:45:55 10° N
Cosmos 2322 Rocket 3.9 01:41:30 13° E 01:41:30 13° E 01:43:44 10° ENE
Cosmos 2369 3.8 01:36:36 10° SSW 01:42:14 82° WNW 01:47:55 10° NNE
IRS-1A Rocket 4.3 01:38:35 15° SSE 01:43:24 87° WSW 01:49:12 10° NNW
Cosmos 1464 Rocket 4.0 01:39:28 10° S 01:45:42 89° W 01:51:54 10° N
Cosmos 1697 Rocket 4.1 01:45:39 10° SW 01:50:56 39° WNW 01:56:14 10° N
Meteor 1-19 Rocket 4.2 01:46:54 17° S 01:51:05 60° E 01:56:23 10° NNE
Cosmos 389 Rocket 2.5 01:51:46 10° NNW 01:55:16 75° W 01:56:49 31° S
CZ-4B R/B 3.2 01:54:05 10° N 01:56:53 29° WNW 01:59:39 10° SW
MetOp-B 4.1 01:56:39 24° SSE 01:59:57 84° ENE 02:05:20 10° NNW
Cosmos 1975 4.2 01:56:58 10° NNE 02:00:14 23° ENE 02:00:36 22° E
ATLAS 2AS CENTAUR R/B 3.0 01:54:21 10° SSW 02:02:12 90° ESE 02:09:53 10° NNE
Cosmos 1092 Rocket 4.5 01:57:42 10° N 02:03:31 42° ENE 02:06:03 29° SE
Cosmos 2297 Rocket 4.0 01:59:24 10° NW 02:03:58 26° WSW 02:08:32 10° SSW
Nadezhda 4 Rocket 3.9 01:57:57 10° N 02:04:10 79° E 02:07:53 25° SSE
GENESIS II 4.3 02:04:45 46° SE 02:05:00 47° ESE 02:08:44 10° NE
Meteor 2-14 Rocket 4.4 01:59:30 10° N 02:05:35 67° E 02:08:48 29° SSE
Cosmos 1634 Rocket 4.4 02:03:53 28° SE 02:06:27 42° E 02:12:12 10° NNE
Helios 1A Rocket 3.2 02:07:25 41° ESE 02:08:20 50° ENE 02:12:12 10° N
EXPRESS MD2 3.1 02:05:03 10° NW 02:10:13 74° NNE 02:10:54 53° E
Cosmos 1933 Rocket 4.1 02:07:46 10° NNW 02:12:09 57° W 02:14:37 24° SSW
ERS-1 Rocket 3.4 02:12:28 34° ESE 02:14:05 45° ENE 02:18:52 10° N
Meteor 2-9 Rocket 4.1 02:09:27 10° N 02:15:13 77° E 02:17:42 34° SSE
Cosmos 1733 Rocket 4.4 02:15:09 10° NNE 02:18:47 24° ENE 02:18:59 24° E
SJ 16-02 2.0 02:15:52 10° SSW 02:20:08 54° WNW 02:24:26 10° N
SL-16 R/B 2.5 02:18:47 37° SE 02:20:09 44° ESE 02:25:31 10° NE
CZ-2C R/B 3.8 02:16:33 10° NNE 02:21:17 60° E 02:22:29 45° SSE
NOSS 2-1 (E) 3.9 02:29:30 35° NE 02:29:30 35° NE 02:31:28 10° NE
Cosmos 1862 Rocket 4.5 02:28:51 33° E 02:28:51 33° E 02:32:35 10° NNE
Cosmos 2026 Rocket 4.1 02:22:27 10° N 02:28:34 59° E 02:30:41 39° SE
Timation 2 Rocket 4.2 02:22:13 10° NNW 02:28:52 77° WSW 02:32:04 34° S
ATLAS 3B R/B 3.8 02:24:16 10° NNW 02:31:06 38° NE 02:35:07 23° E
BREEZE M DEB (TANK) 4.4 02:29:48 10° NW 02:34:29 69° NE 02:47:28 19° ESE
Cosmos 1346 Rocket 2.8 02:36:33 64° ENE 02:36:33 64° ENE 02:40:20 10° NNE
Meteor 1-18 Rocket 4.2 02:34:06 28° SSW 02:37:13 81° W 02:42:53 10° N
Meteor 2-8 Rocket 4.4 02:37:05 41° SSE 02:39:17 71° E 02:45:21 10° NNE
Cosmos 2278 4.5 02:35:27 10° SW 02:40:55 50° WNW 02:46:27 10° NNE
OAO 3 Rocket 4.1 02:37:30 10° W 02:41:32 35° SSW 02:41:32 35° SSW
Gblst 52 Del rocket 4.4 02:35:08 10° SW 02:42:08 74° SE 02:48:12 10° NE
Resurs 01 Rocket 3.9 02:39:25 10° SW 02:42:23 18° W 02:45:22 10° NW
SPOT 5 3.1 02:43:22 48° S 02:44:53 78° WSW 02:50:05 10° NNW
Cosmos 2360 Rocket 3.2 02:45:50 30° E 02:45:50 30° E 02:49:54 10° NE
Terra 1.7 02:44:35 62° SE 02:45:13 72° ENE 02:49:58 10° N
Cosmos 2292 Rocket 4.0 02:45:46 10° NNW 02:47:45 38° NNW 02:47:45 38° NNW
Cosmos 1627 Rocket 4.4 02:43:53 10° N 02:50:09 90° ENE 02:52:13 46° S
Cosmos 1378 4.0 02:52:06 40° W 02:52:27 42° W 02:55:57 10° N
Cosmos 2263 Rocket 2.2 02:47:28 10° NNW 02:53:02 74° WSW 02:54:16 54° S
ISS -2.3 02:50:28 10° NW 02:53:04 34° N 02:53:04 34° N
Meteor 2-15 4.3 02:52:58 46° S 02:54:56 87° ESE 03:01:03 10° N
Cosmos 990 Rocket 4.1 02:57:52 57° E 02:57:52 57° E 03:02:55 10° NNE
Cosmos 2279 Rocket 3.9 03:07:07 55° S 03:08:35 85° E 03:14:50 10° N
Cosmos 1066 Rocket 4.1 03:10:46 65° SE 03:11:15 69° E 03:16:55 10° NNE
Cosmos 1898 Rocket 4.0 03:12:30 47° ENE 03:12:30 47° ENE 03:16:57 10° NNE
SL-4 R/B 4.3 03:12:09 10° W 03:13:57 16° WSW 03:13:57 16° WSW
SL-24 R/B - RUBIN 2 3.7 03:14:06 10° NNW 03:18:06 71° NW 03:18:06 71° NW
ARIANE 5 R/B 3.2 03:23:46 52° W 03:23:46 52° W 03:27:56 10° NNW
Cosmos 2322 Rocket 2.3 03:23:14 54° SW 03:24:27 73° WNW 03:30:05 10° NNE
USA 215 3.1 03:18:19 10° NE 03:24:50 64° SE 03:25:34 60° SSE
ATLAS CENTAUR R/B 3.7 03:21:25 10° N 03:24:51 19° NE 03:25:48 18° ENE
BREEZE-M DEB (TANK) 3.2 03:23:58 10° NW 03:26:21 47° NNE 03:26:21 47° NNE
Cosmos 2333 Rocket 3.0 03:31:12 36° ENE 03:31:12 36° ENE 03:35:14 10° NE
Cosmos 1844 Rocket 3.2 03:27:13 10° N 03:32:37 46° ENE 03:32:53 46° ENE
Cosmos 2180 Rocket 4.4 03:35:28 63° SW 03:36:24 77° W 03:42:34 10° N
Cosmos 44 Rocket 4.1 03:32:35 10° NW 03:36:16 42° W 03:36:16 42° W
Meteor 1-4 Rocket 4.5 03:33:47 10° N 03:35:33 28° NNW 03:35:33 28° NNW
Cosmos 1703 Rocket 4.5 03:39:39 43° NNE 03:39:39 43° NNE 03:42:45 10° NNE
Meteor 1-23 Rocket 4.5 03:40:45 58° E 03:40:45 58° E 03:46:09 10° NNE
Cosmos 2219 Rocket 3.1 03:49:49 37° ENE 03:49:49 37° ENE 03:53:40 10° NE
Cosmos 1844 3.9 03:51:19 10° NNW 03:57:04 64° ENE 03:57:04 64° ENE
Cosmos 1726 4.3 04:00:38 10° N 04:02:17 25° N 04:02:17 25° N
SL-16 R/B 4.1 04:00:33 13° WSW 04:04:25 25° WNW 04:09:05 10° N
ALOS 2 3.9 04:14:10 36° NNE 04:14:10 36° NNE 04:17:06 10° N
Cosmos 2237 Rocket 4.2 04:20:21 16° ENE 04:20:21 16° ENE 04:22:28 10° ENE
Cosmos 1655 Rocket 4.1 04:12:42 10° NNW 04:18:52 64° W 04:18:59 64° W
ATLAS 3B R/B 3.2 04:14:52 10° NW 04:22:01 50° WSW 04:22:21 49° WSW
COSMOS 2428 3.2 04:23:47 50° ENE 04:23:47 50° ENE 04:28:12 10° NNE
Cosmos 1937 Rocket 4.2 04:23:08 48° WNW 04:23:08 48° WNW 04:28:05 10° N
Terra 4.4 04:23:27 10° W 04:23:27 10° W 04:24:08 10° W
CZ-4C R/B 3.8 04:18:46 10° NNW 04:25:48 44° NE 04:29:39 29° ESE
Cosmos 2360 Rocket 3.4 04:27:32 30° W 04:28:52 34° WNW 04:33:59 10° N
NOSS 3-1 (C) 4.3 04:25:52 10° NNW 04:33:33 67° NE 04:36:05 48° ESE
Cosmos 1867 4.0 04:35:35 57° NE 04:35:35 57° NE 04:39:55 10° NNE
Meteor 1-21 4.4 04:41:33 71° NNE 04:41:33 71° NNE 04:46:45 10° N
Cosmos 2278 Rocket 3.6 04:48:18 10° N 04:53:14 30° ENE 04:54:16 28° ENE
Cosmos 1818 4.5 04:50:53 10° NW 04:54:36 40° WNW 04:54:36 40° WNW
Lacrosse 5 4.1 05:04:31 16° ENE 05:04:31 16° ENE 05:05:48 10° ENE
ATLAS CENTAUR R/B 3.3 04:59:21 10° NW 05:01:48 29° NW 05:01:48 29° NW
SL-16 R/B 4.3 05:07:55 14° E 05:07:55 14° E 05:10:09 10° ENE
USA 215 4.4 05:01:36 10° NE 05:07:35 39° NNW 05:12:51 13° W
Cosmos 1417 Rocket 4.4 05:10:23 79° ENE 05:10:23 79° ENE 05:16:21 10° N
Cosmos 1980 4.3 05:11:35 50° ENE 05:11:35 50° ENE 05:16:04 10° NNE
ADEOS Rocket 3.1 05:13:15 60° WNW 05:13:15 60° WNW 05:18:22 10° NNW
Cosmos 2333 Rocket 3.7 05:13:10 25° WNW 05:14:20 27° WNW 05:19:04 10° N
ASTEX 1 4.1 05:12:47 10° N 05:16:31 52° N 05:16:31 52° N
Cosmos 2219 Rocket 3.8 05:31:29 23° WNW 05:32:30 25° WNW 05:37:03 10° N
Cosmos 1709 Rocket 4.4 05:27:01 10° N 05:32:57 51° E 05:33:26 50° E
Cosmos 2150 Rocket 4.4 05:33:55 59° N 05:33:55 59° N 05:38:10 10° NNE
Cosmos 2315 Rocket 4.3 05:33:04 56° ESE 05:33:20 56° E 05:39:33 10° NNE
Cosmos 1386 Rocket 4.3 05:31:54 10° N 05:37:41 80° NW 05:37:41 80° NW
S3M 4.0 05:38:12 76° W 05:38:15 76° W 05:44:38 10° N
USA 267 3.2 05:38:54 58° ESE 05:40:19 83° NE 05:46:54 10° NW
Cosmos 1125 Rocket 4.0 05:44:18 52° NW 05:44:18 52° NW 05:48:44 10° N
CZ-2D R/B 3.7 05:40:32 10° NE 05:44:48 24° E 05:44:50 24° E
Meteor 1-16 Rocket 4.4 05:39:50 10° NNW 05:45:16 69° WNW 05:45:16 69° WNW
Cosmos 1975 Rocket 4.4 05:48:04 35° NE 05:48:04 35° NE 05:51:10 10° NNE
USA 229 DEB 3.9 05:43:13 10° NNW 05:50:45 88° ENE 05:52:46 55° SE
USA 229 3.9 05:43:19 10° NNW 05:50:51 87° ENE 05:52:53 55° SE
Cosmos 839 Rocket 4.3 05:48:16 10° NNW 05:54:49 77° ENE 05:57:08 48° SE
NOSS 0 Rocket 4.5 05:56:55 45° W 05:57:36 47° WNW 06:03:37 10° NNE
Meteor 2-5 Rocket 4.2 05:57:39 50° E 05:57:51 50° E 06:03:20 10° NNE
NOSS 2-2 (E) 4.5 05:52:57 10° NW 05:58:42 77° WSW 05:58:58 76° SW
Lacrosse 5 rocket 3.4 06:01:10 20° ENE 06:01:10 20° ENE 06:02:37 10° NE
Cosmos 2237 Rocket 2.5 06:02:09 55° WNW 06:02:09 55° WNW 06:07:46 10° NNE
Cosmos 332 Rocket 4.3 06:04:18 57° N 06:04:18 57° N 06:08:12 10° NNE
Cosmos 1953 4.3 06:05:26 10° NNW 06:07:09 23° NW 06:07:09 23° NW
Resurs 1-4 Rocket 2.8 06:05:07 10° NNE 06:10:07 43° E 06:10:14 43° ESE
GP-B 3.8 06:08:23 10° N 06:11:45 51° N 06:11:45 51° N
CZ-4C R/B 3.3 06:07:14 10° NW 06:14:35 48° WSW 06:14:45 48° WSW
NOSS 3-1 (A) 4.3 06:09:44 10° NW 06:17:26 55° WSW 06:18:25 52° SW
Cosmos 1943 Rocket 3.3 06:15:12 10° N 06:20:34 41° ENE 06:23:41 22° ESE
IDEFIX/ARIANE 42P 4.2 06:18:02 10° NE 06:22:11 23° E 06:23:29 21° ESE
ADEOS II 3.4 06:18:56 10° NE 06:23:29 29° E 06:24:27 27° ESE
Thor Agena Rocket 3.6 06:20:47 10° N 06:26:03 69° WNW 06:26:03 69° WNW
Cosmos 2278 Rocket 3.2 06:32:10 10° NW 06:36:05 33° WNW 06:36:05 33° WNW
Lacrosse 5 2.4 06:43:42 46° WNW 06:44:21 49° NW 06:49:19 10° NNE
NPP 3.6 06:39:54 10° NNE 06:45:18 76° ESE 06:46:05 64° SSE
ATLAS 5 CENTAUR R/B 4.0 06:41:15 10° NW 06:45:39 25° WNW 06:45:39 25° WNW
Cosmos 2369 Rocket 4.1 06:45:36 10° N 06:50:21 27° ENE 06:55:04 10° ESE
SL-16 R/B 2.2 06:49:47 60° WSW 06:50:33 68° WNW 06:56:13 10° NNE
Cosmos 1455 2.8 06:49:44 10° N 06:52:50 53° NE 06:52:50 53° NE
SME Rocket 3.9 06:58:11 39° WNW 06:58:11 39° WNW 07:01:43 10° NNW
AQUA 3.7 06:56:12 10° NNE 07:00:59 82° ESE 07:01:34 68° S
Cosmos 1269 Rocket 3.9 06:56:12 10° NNW 07:01:25 64° WSW 07:01:45 62° SW
Cosmos 1271 Rocket 3.8 06:58:39 10° N 07:02:17 40° ENE 07:03:04 35° ESE
SL-16 R/B 2.4 07:01:09 37° SSE 07:03:49 90° S 07:10:06 10° NNW
Cosmos 2228 4.4 07:02:53 10° N 07:06:54 35° ENE 07:09:09 21° SE
Cosmos 2074 Rocket 3.9 07:04:42 10° N 07:10:59 72° W 07:13:08 43° SSW
Meteor 1-24 Rocket 4.3 07:14:10 36° W 07:15:01 38° WNW 07:20:07 10° N
SAR-Lupe-2 3.9 07:12:13 10° N 07:15:21 58° NW 07:15:21 58° NW
Cosmos 1536 Rocket 3.5 07:16:40 65° WSW 07:16:59 67° W 07:21:22 10° N
COSMOS 2455 2.9 07:18:09 44° SW 07:20:04 68° WNW 07:26:06 10° NNE
Cosmos 292 Rocket 3.8 07:20:54 55° WSW 07:21:45 67° WNW 07:26:33 10° NNE
DNEPR-1 R/B 4.0 07:21:45 41° SSE 07:22:30 46° ESE 07:26:45 10° NE
CZ-2D R/B 2.8 07:20:01 10° N 07:24:56 39° WNW 07:26:09 34° W
CRYOSAT 2 4.4 07:25:17 51° SW 07:26:16 63° W 07:31:07 10° NNW
Cosmos 2184 Rocket 4.1 07:21:12 10° NNW 07:27:15 55° W 07:29:21 38° SW
Cosmos 1610 Rocket 4.3 07:23:51 10° N 07:30:00 82° W 07:33:27 28° S
GPS 2-04 Rocket1 4.0 07:31:42 23° SE 07:31:42 23° SE 07:33:36 10° E
MSX 3.8 07:31:33 10° NNE 07:37:22 89° ESE 07:40:20 31° SSW
Lacrosse 5 rocket 3.1 07:36:40 18° WNW 07:38:06 22° NW 07:41:15 10° NNE
Helios 1B rocket 4.0 07:34:51 10° NE 07:38:28 30° E 07:41:03 16° SSE
YAOGAN 11 4.4 07:40:01 43° WSW 07:40:33 45° W 07:44:51 10° NNW
Cosmos 1606 Rocket 4.0 07:39:29 10° N 07:43:50 61° E 07:47:12 16° SSE
OAO 2 Rocket 3.7 07:42:53 37° SSW 07:43:56 43° SSE 07:48:36 10° E
Cosmos 1943 3.2 07:41:37 32° SSW 07:44:21 86° ESE 07:50:05 10° NNE
Cosmos 2181 Rocket 4.5 07:40:26 14° SSE 07:45:43 57° E 07:51:45 10° NNE
Cosmos 1703 3.6 07:45:42 42° WSW 07:46:12 45° W 07:49:59 10° N
UNK 4.4 07:48:50 33° WSW 07:49:19 34° W 07:53:29 10° NNW
Resurs 1-4 Rocket 3.6 07:45:37 10° NNW 07:49:37 23° WNW 07:51:19 19° W
EO 1 Del DPAF 3.8 07:49:02 10° N 07:52:15 35° WNW 07:52:35 34° W
Helios 1A 3.1 07:51:32 38° SSW 07:52:48 52° W 07:56:56 10° NNW
Meteor 2-1 Rocket 4.3 07:48:01 10° N 07:53:46 77° E 07:59:21 10° SSE
NOSS 3-3 (A) 3.9 07:52:29 30° SW 07:55:19 69° NW 08:01:35 10° NNE
NOSS 3-3 (C) 3.8 07:52:35 30° SW 07:55:25 70° NW 08:01:41 10° NNE
ARIANE 5 R/B 4.3 07:51:45 10° NE 07:55:56 26° E 08:00:04 10° SSE
Lacrosse 4 Rocket 3.3 07:55:25 11° SSE 07:58:39 24° ESE 08:02:06 10° NE
CBERS-1 4.2 07:54:24 10° NNE 07:59:32 72° ESE 08:03:20 18° S
IDEFIX/ARIANE 42P 3.2 07:56:57 10° N 08:01:51 40° WNW 08:04:17 25° WSW
Cosmos 614 Rocket 4.5 07:57:22 10° NW 08:02:12 39° WSW 08:04:35 25° SSW
Cosmos 2056 Rocket 3.9 07:59:06 18° S 08:02:49 62° ESE 08:08:00 10° NNE
ADEOS II 3.1 07:58:29 10° N 08:03:06 32° WNW 08:05:22 23° WSW
BREEZE-M DEB (TANK) 3.3 08:02:27 33° SSW 08:03:35 53° SE 08:10:00 10° ENE
Cosmos 1408 3.6 08:01:10 15° SSE 08:03:54 44° E 08:07:22 10° NNE
Cosmos 1943 Rocket 3.2 07:59:27 10° NW 08:04:01 26° WSW 08:05:08 24° WSW
Meteor 1-28 Rocket 4.2 08:06:01 27° W 08:06:09 27° W 08:09:23 10° NW
Cosmos 1892 3.8 08:02:58 12° SSE 08:06:15 41° E 08:09:48 10° NNE
FENGYUN 3A 4.3 08:01:11 10° NNE 08:06:26 52° E 08:11:41 10° S
SL-19 R/B 4.4 08:03:40 10° NNE 08:09:44 86° WNW 08:14:16 17° SSW
MOS 1 Rocket 4.4 08:10:22 21° W 08:10:37 21° W 08:13:54 10° NW
ALOS 3.2 08:07:33 10° NNE 08:12:03 46° E 08:16:31 10° S
Cosmos 2263 4.2 08:06:41 10° NNW 08:12:24 87° WSW 08:18:08 10° SSE
IRS-1D 3.8 08:07:51 10° N 08:13:03 54° WNW 08:16:21 21° SW
Cosmos 2251 Rocket 3.7 08:10:44 10° NNW 08:15:50 51° WSW 08:20:57 10° S
Cosmos 1892 Rocket 3.6 08:13:51 21° SSW 08:16:43 67° W 08:21:11 10° N
Cosmos 1726 Rocket 3.6 08:18:33 10° NNW 08:22:54 61° W 08:27:04 11° S
Cosmos 2366 rocket 3.9 08:21:46 10° N 08:27:57 82° W 08:34:09 10° S
Lacrosse 5 4.3 08:25:47 10° NW 08:28:26 14° NNW 08:31:05 10° N
CZ-2C R/B 2.7 08:25:07 10° NNE 08:30:13 72° ESE 08:35:07 10° S
Cosmos 2341 Rocket 4.3 08:26:03 10° NNW 08:32:12 51° W 08:38:19 10° SSW
PAYLOAD A 4.0 08:27:31 10° NNE 08:32:16 74° ESE 08:37:09 10° S
SL-8 Rocket 4.1 08:28:11 10° NNW 08:34:24 60° W 08:40:34 10° S
Cosmos 2369 Rocket 2.6 08:29:16 10° NW 08:34:26 39° WSW 08:39:34 10° S
SL-16 R/B 4.5 08:35:04 10° NW 08:35:46 10° NW 08:36:28 10° NW
Cosmos 1656 Rocket 3.8 08:31:00 10° NW 08:36:09 47° WSW 08:41:20 10° S
IRS-P3 4.3 08:30:48 10° NNE 08:36:10 74° ESE 08:41:28 10° S
Meteor 1-29 3.5 08:35:16 10° NNE 08:38:29 53° E 08:41:39 10° S
BREEZE-M DEB (TANK) 3.9 08:43:17 10° W 08:47:15 27° NW 08:49:23 10° NNE
In-Cosmos 22 Rocket 4.3 08:42:02 10° S 08:47:49 85° W 08:53:41 10° N
SL-16 R/B 4.3 08:46:14 10° WSW 08:48:08 12° W 08:50:18 10° WNW
Cosmos 1420 Rocket 4.1 08:44:05 11° SSW 08:49:00 62° WNW 08:54:10 10° NNE
SL-08 R/B 4.1 08:49:19 10° SSE 08:53:47 55° ENE 08:58:19 10° N
DELTA 2 DEB (DPAF) 4.1 08:51:49 10° SSE 08:56:14 83° WSW 09:00:40 10° NNW
Meteor 1-27 4.4 08:51:05 10° N 08:56:52 82° E 09:02:31 10° S
Cosmos 407 Rocket 4.1 08:53:43 10° NW 08:58:34 37° W 09:03:19 10° SSW
Cosmos 1869 3.4 08:55:43 10° N 08:59:38 76° E 09:03:29 10° S
Cosmos 1626 Rocket 3.6 08:56:32 10° SSW 09:00:54 67° W 09:05:16 10° N
Cosmos 2058 Rocket 3.6 08:57:05 10° NNW 09:01:09 39° W 09:05:11 10° SSW
CZ-4C R/B 4.4 08:58:36 10° SSE 09:02:04 47° ENE 09:05:44 10° N
Genesis I 3.6 08:59:06 10° NW 09:02:55 42° WSW 09:06:38 10° S
MOS 1-B Rocket 4.3 08:58:18 10° SSW 09:03:31 39° W 09:08:50 10° NNW
Cosmos 1140 Rocket 4.3 09:01:24 10° NW 09:05:55 30° W 09:10:23 10° SSW
SeaSat 1 2.5 09:01:26 10° NNE 09:06:23 86° ESE 09:11:19 10° SSW
Cosmos 1452 Rocket 3.7 09:02:19 10° S 09:07:34 76° ESE 09:12:52 10° NNE
GPS 2-04 Rocket1 2.6 09:05:51 10° WSW 09:09:13 55° S 09:12:43 10° E
CZ-2C R/B 4.1 09:07:18 10° NNE 09:10:44 37° E 09:14:10 10° SSE
Helios 1B rocket 4.1 09:10:30 10° NNW 09:13:23 19° WNW 09:16:16 10° WSW
Nadezhda 3 Rocket 4.1 09:09:56 10° SSW 09:16:13 70° W 09:22:29 10° N
Cosmos 489 Rocket 4.5 09:10:23 10° NNW 09:16:35 69° WSW 09:22:48 10° S
CZ-3 R/B 3.9 08:50:11 10° W 09:28:58 58° SSW 09:38:26 10° ESE
